• In Russia
  • List of Countries
  • For 7 days
  • Water Temperature
  • Satellite Maps
  • Weather Map
  • Weather Widgets
  • user-avatar
    Login

    Hourly Weather Baimaclia

    Today, 22 June, Friday

    Time Temperature Precipitation Wind Pressure Humidity
    00:00 +24°C° 0 mm 1 mps 736 mmHg 62%
    01:00 +24°C° 0 mm 1 mps 736 mmHg 64%
    02:00 +23°C° 0 mm 2 mps 735 mmHg 66%
    03:00 +23°C° 0 mm 2 mps 735 mmHg 68%
    04:00 +21°C° 0 mm 2 mps 735 mmHg 70%
    05:00 +21°C° 0 mm 2 mps 735 mmHg 71%
    06:00 +24°C° 0 mm 2 mps 735 mmHg 65%
    07:00 +26°C° 0 mm 2 mps 735 mmHg 58%
    08:00 +27°C° 0 mm 3 mps 735 mmHg 50%
    09:00 +29°C° 0 mm 3 mps 735 mmHg 45%
    10:00 +30°C° 0 mm 3 mps 735 mmHg 40%
    11:00 +31°C° 0 mm 3 mps 735 mmHg 35%
    12:00 +33°C° 0.1 mm 3 mps 735 mmHg 34%
    13:00 +33°C° 0.1 mm 3 mps 734 mmHg 33%
    14:00 +34°C° 0.1 mm 3 mps 734 mmHg 31%
    15:00 +33°C° 0 mm 4 mps 734 mmHg 37%
    16:00 +32°C° 0 mm 5 mps 734 mmHg 43%
    17:00 +30°C° 0 mm 5 mps 734 mmHg 49%
    18:00 +27°C° 0.8 mm 6 mps 734 mmHg 58%
    19:00 +24°C° 0.8 mm 6 mps 734 mmHg 68%
    20:00 +22°C° 0.8 mm 6 mps 734 mmHg 77%
    21:00 +21°C° 1 mm 6 mps 734 mmHg 80%
    22:00 +20°C° 1 mm 6 mps 734 mmHg 84%
    23:00 +18°C° 1 mm 7 mps 734 mmHg 87%

    Tomorrow, 23 June, Saturday

    Time Temperature Precipitation Wind Pressure Humidity
    00:00 +17°C° 0.2 mm 7 mps 734 mmHg 86%
    01:00 +16°C° 0.2 mm 7 mps 734 mmHg 85%
    02:00 +15°C° 0.2 mm 7 mps 734 mmHg 85%
    03:00 +14°C° 0.1 mm 7 mps 734 mmHg 84%
    04:00 +14°C° 0.1 mm 7 mps 734 mmHg 83%
    05:00 +12°C° 0.1 mm 7 mps 734 mmHg 82%
    06:00 +12°C° 0.1 mm 7 mps 735 mmHg 80%
    07:00 +14°C° 0.1 mm 7 mps 735 mmHg 78%
    08:00 +13°C° 0.1 mm 8 mps 735 mmHg 77%
    09:00 +13°C° 0.2 mm 8 mps 736 mmHg 77%
    10:00 +12°C° 0.2 mm 8 mps 736 mmHg 78%
    11:00 +12°C° 0.2 mm 8 mps 736 mmHg 79%
    12:00 +14°C° 0.1 mm 7 mps 737 mmHg 76%
    13:00 +14°C° 0.1 mm 7 mps 737 mmHg 73%
    14:00 +15°C° 0.1 mm 6 mps 737 mmHg 71%
    15:00 +16°C° 0 mm 6 mps 737 mmHg 64%
    16:00 +19°C° 0 mm 6 mps 737 mmHg 58%
    17:00 +20°C° 0 mm 6 mps 737 mmHg 52%
    18:00 +19°C° 0 mm 5 mps 737 mmHg 56%
    19:00 +18°C° 0 mm 4 mps 737 mmHg 60%
    20:00 +16°C° 0 mm 3 mps 737 mmHg 64%
    21:00 +14°C° 0 mm 3 mps 738 mmHg 67%
    22:00 +15°C° 0 mm 2 mps 738 mmHg 69%
    23:00 +14°C° 0 mm 2 mps 739 mmHg 72%

    Day after tomorrow, 24 June, Sunday

    Time Temperature Precipitation Wind Pressure Humidity
    00:00 +13°C° 0 mm 2 mps 739 mmHg 73%
    01:00 +13°C° 0 mm 1 mps 739 mmHg 75%
    02:00 +12°C° 0 mm 1 mps 739 mmHg 76%
    03:00 +12°C° 0 mm 1 mps 739 mmHg 77%
    04:00 +12°C° 0 mm 1 mps 739 mmHg 77%
    05:00 +12°C° 0 mm 1 mps 739 mmHg 78%
    06:00 +14°C° 0 mm 2 mps 740 mmHg 70%
    07:00 +16°C° 0 mm 2 mps 740 mmHg 62%
    08:00 +18°C° 0 mm 2 mps 740 mmHg 54%
    09:00 +19°C° 0 mm 2 mps 740 mmHg 50%
    10:00 +21°C° 0 mm 1 mps 740 mmHg 46%
    11:00 +22°C° 0 mm 1 mps 740 mmHg 42%
    12:00 +23°C° 0 mm 1 mps 740 mmHg 40%
    13:00 +24°C° 0 mm 1 mps 740 mmHg 38%
    14:00 +25°C° 0 mm 1 mps 740 mmHg 36%
    15:00 +24°C° 0 mm 1 mps 740 mmHg 37%
    16:00 +24°C° 0 mm 1 mps 739 mmHg 39%
    17:00 +24°C° 0 mm 1 mps 739 mmHg 40%
    18:00 +22°C° 0.1 mm 1 mps 739 mmHg 44%
    19:00 +21°C° 0.1 mm 1 mps 740 mmHg 48%
    20:00 +20°C° 0.1 mm 1 mps 740 mmHg 53%
    21:00 +19°C° 0.1 mm 1 mps 740 mmHg 57%
    22:00 +18°C° 0.1 mm 1 mps 740 mmHg 62%
    23:00 +18°C° 0.1 mm 1 mps 740 mmHg 66%

    25 June, Monday

    Time Temperature Precipitation Wind Pressure Humidity
    00:00 +16°C° 0.1 mm 1 mps 740 mmHg 68%
    01:00 +16°C° 0.1 mm 1 mps 740 mmHg 70%
    02:00 +15°C° 0.1 mm 1 mps 740 mmHg 72%
    03:00 +15°C° 0.1 mm 1 mps 740 mmHg 73%
    04:00 +15°C° 0.1 mm 1 mps 740 mmHg 74%
    05:00 +15°C° 0.1 mm 1 mps 740 mmHg 74%
    06:00 +18°C° 0 mm 1 mps 740 mmHg 68%
    07:00 +18°C° 0 mm 2 mps 741 mmHg 61%
    08:00 +20°C° 0 mm 2 mps 741 mmHg 55%
    09:00 +23°C° 0.1 mm 2 mps 741 mmHg 49%
    10:00 +24°C° 0.1 mm 2 mps 741 mmHg 44%
    11:00 +25°C° 0.1 mm 3 mps 741 mmHg 38%
    12:00 +25°C° 0 mm 3 mps 741 mmHg 38%
    13:00 +25°C° 0 mm 3 mps 741 mmHg 38%
    14:00 +25°C° 0 mm 3 mps 740 mmHg 38%
    15:00 +25°C° 0 mm 3 mps 740 mmHg 40%
    16:00 +25°C° 0 mm 3 mps 740 mmHg 41%
    17:00 +25°C° 0 mm 3 mps 740 mmHg 42%
    18:00 +24°C° 0 mm 3 mps 740 mmHg 46%
    19:00 +23°C° 0 mm 2 mps 741 mmHg 51%
    20:00 +21°C° 0 mm 2 mps 741 mmHg 55%
    21:00 +20°C° 0 mm 2 mps 741 mmHg 58%
    22:00 +20°C° 0 mm 1 mps 741 mmHg 60%
    23:00 +19°C° 0 mm 1 mps 741 mmHg 62%

    26 June, Tuesday

    Time Temperature Precipitation Wind Pressure Humidity
    00:00 +19°C° 0 mm 1 mps 741 mmHg 63%
    01:00 +17°C° 0 mm 2 mps 741 mmHg 64%
    02:00 +17°C° 0 mm 2 mps 741 mmHg 64%
    03:00 +17°C° 0 mm 2 mps 741 mmHg 66%
    04:00 +16°C° 0 mm 3 mps 741 mmHg 67%
    05:00 +16°C° 0 mm 3 mps 741 mmHg 68%
    06:00 +18°C° 0 mm 3 mps 741 mmHg 63%
    07:00 +20°C° 0 mm 4 mps 741 mmHg 58%
    08:00 +22°C° 0 mm 4 mps 741 mmHg 53%
    09:00 +23°C° 0 mm 4 mps 741 mmHg 48%
    10:00 +26°C° 0 mm 4 mps 741 mmHg 43%
    11:00 +27°C° 0 mm 4 mps 741 mmHg 38%
    12:00 +27°C° 0 mm 4 mps 741 mmHg 37%
    13:00 +27°C° 0 mm 4 mps 740 mmHg 36%
    14:00 +28°C° 0 mm 4 mps 740 mmHg 36%
    15:00 +27°C° 0 mm 4 mps 740 mmHg 37%
    16:00 +27°C° 0 mm 4 mps 740 mmHg 38%
    17:00 +27°C° 0 mm 4 mps 739 mmHg 40%
    18:00 +25°C° 0 mm 4 mps 739 mmHg 45%
    19:00 +23°C° 0 mm 4 mps 739 mmHg 50%
    20:00 +21°C° 0 mm 3 mps 739 mmHg 56%
    21:00 +21°C° 0 mm 3 mps 739 mmHg 58%
    22:00 +20°C° 0 mm 3 mps 739 mmHg 61%
    23:00 +19°C° 0 mm 3 mps 739 mmHg 64%

    27 June, Wednesday

    Time Temperature Precipitation Wind Pressure Humidity
    00:00 +19°C° 0 mm 3 mps 739 mmHg 67%
    01:00 +18°C° 0 mm 3 mps 739 mmHg 70%
    02:00 +17°C° 0 mm 4 mps 738 mmHg 74%
    03:00 +17°C° 0 mm 4 mps 738 mmHg 76%
    04:00 +17°C° 0 mm 4 mps 738 mmHg 78%
    05:00 +15°C° 0 mm 4 mps 738 mmHg 80%
    06:00 +18°C° 0 mm 4 mps 738 mmHg 74%
    07:00 +20°C° 0 mm 5 mps 739 mmHg 68%
    08:00 +22°C° 0 mm 5 mps 739 mmHg 62%
    09:00 +23°C° 0 mm 5 mps 739 mmHg 56%
    10:00 +26°C° 0 mm 4 mps 738 mmHg 50%
    11:00 +27°C° 0 mm 4 mps 738 mmHg 44%
    12:00 +27°C° 0.1 mm 4 mps 738 mmHg 43%
    13:00 +28°C° 0.1 mm 4 mps 738 mmHg 42%
    14:00 +28°C° 0.1 mm 4 mps 737 mmHg 41%
    15:00 +28°C° 0 mm 4 mps 737 mmHg 42%
    16:00 +27°C° 0 mm 4 mps 737 mmHg 43%
    17:00 +27°C° 0 mm 4 mps 737 mmHg 45%
    18:00 +26°C° 0.2 mm 4 mps 737 mmHg 51%
    19:00 +24°C° 0.2 mm 3 mps 737 mmHg 57%
    20:00 +22°C° 0.2 mm 3 mps 737 mmHg 63%
    21:00 +21°C° 0 mm 3 mps 737 mmHg 65%
    22:00 +20°C° 0 mm 3 mps 738 mmHg 67%
    23:00 +19°C° 0 mm 4 mps 738 mmHg 70%
    Show more